Location: Mahannah Oil Field
(37.4664°N, 96.6003°W)
Time: 12:52:06
(UTC+00:00)

Transit 2A Rocket - Pass Details

Date: 24 January 2021
Orbit: 594 x 908 km, 66.7° (Epoch: 07 March)

Event Time Altitude Azimuth Distance (km) Brightness Sun altitude
Rises 03:00:41 0° 341° (NNW) 2,897 - -39.5°
Reaches altitude 10° 03:03:13 10° 353° (N) 1,961 - -40.0°
Maximum altitude 03:07:03 29° 55° (NE) 1,092 - -40.7°
Drops below altitude 10° 03:10:49 10° 116° (ESE) 1,924 - -41.5°
Sets 03:13:17 0° 128° (SE) 2,832 - -42.0°
